Time,TemperatureF,DewpointF,PressureIn,WindDirection,WindDirectionDegrees,WindSpeedMPH,WindSpeedGustMPH,Humidity,HourlyPrecipIn,Conditions,Clouds,dailyrainin,SoftwareType,DateUTC
2013-02-13 00:02:00,22.0,19.0,29.87,WSW,240,0.0,-999.0,87,-99.99,,,-99.99,,2013-02-13 05:02:00,
2013-02-13 00:12:00,22.0,19.0,29.87,WSW,240,0.0,-999.0,87,-99.99,,,-99.99,,2013-02-13 05:12:00,
2013-02-13 00:22:00,22.0,19.0,29.87,WSW,240,0.0,-999.0,87,-99.99,,,-99.99,,2013-02-13 05:22:00,
2013-02-13 00:32:00,22.0,19.0,29.88,WSW,240,0.0,-999.0,88,-99.99,,,-99.99,,2013-02-13 05:32:00,
2013-02-13 00:42:00,22.0,19.0,29.88,WSW,240,0.0,-999.0,88,-99.99,,,-99.99,,2013-02-13 05:42:00,
2013-02-13 00:52:00,23.0,20.0,29.88,WSW,240,0.0,-999.0,89,-99.99,,,-99.99,,2013-02-13 05:52:00,
2013-02-13 01:02:00,23.0,20.0,29.87,WSW,240,0.0,-999.0,89,-99.99,,,-99.99,,2013-02-13 06:02:00,
2013-02-13 01:11:00,24.0,21.0,29.86,WSW,240,0.0,-999.0,89,-99.99,,,-99.99,,2013-02-13 06:11:00,
2013-02-13 01:22:00,24.0,21.0,29.86,WSW,240,0.0,-999.0,89,-99.99,,,-99.99,,2013-02-13 06:22:00,
2013-02-13 01:32:00,24.0,21.0,29.86,WSW,240,0.0,-999.0,89,-99.99,,,-99.99,,2013-02-13 06:32:00,
2013-02-13 01:42:00,24.0,21.0,29.86,WSW,240,0.0,-999.0,89,-99.99,,,-99.99,,2013-02-13 06:42:00,
2013-02-13 01:52:00,24.0,21.0,29.86,WSW,240,0.0,-999.0,89,-99.99,,,-99.99,,2013-02-13 06:52:00,
2013-02-13 02:02:00,24.0,21.0,29.86,WSW,240,0.0,-999.0,89,-99.99,,,-99.99,,2013-02-13 07:02:00,
2013-02-13 02:11:00,25.0,22.0,29.86,WSW,240,0.0,-999.0,89,-99.99,,,-99.99,,2013-02-13 07:11:00,
2013-02-13 02:22:00,25.0,22.0,29.86,WSW,240,0.0,-999.0,89,-99.99,,,-99.99,,2013-02-13 07:22:00,
2013-02-13 02:32:00,25.0,22.0,29.85,WSW,240,0.0,-999.0,89,-99.99,,,-99.99,,2013-02-13 07:32:00,
2013-02-13 02:42:00,25.0,22.0,29.85,WSW,240,0.0,-999.0,89,-99.99,,,-99.99,,2013-02-13 07:42:00,
2013-02-13 02:51:00,25.0,22.0,29.85,WSW,240,0.0,-999.0,89,-99.99,,,-99.99,,2013-02-13 07:51:00,
2013-02-13 03:01:00,25.0,22.0,29.84,WSW,240,0.0,-999.0,89,-99.99,,,-99.99,,2013-02-13 08:01:00,
2013-02-13 03:11:00,25.0,22.0,29.84,WSW,240,0.0,-999.0,89,-99.99,,,-99.99,,2013-02-13 08:11:00,
2013-02-13 03:21:00,25.0,22.0,29.84,WSW,240,0.0,-999.0,89,-99.99,,,-99.99,,2013-02-13 08:21:00,
2013-02-13 03:32:00,25.0,22.0,29.83,WSW,240,0.0,-999.0,89,-99.99,,,-99.99,,2013-02-13 08:32:00,
2013-02-13 03:43:00,25.0,22.0,29.83,WSW,240,0.0,-999.0,89,-99.99,,,-99.99,,2013-02-13 08:43:00,
2013-02-13 03:52:00,25.0,22.0,29.82,WSW,240,0.0,-999.0,89,-99.99,,,-99.99,,2013-02-13 08:52:00,
2013-02-13 04:02:00,25.0,22.0,29.83,WSW,240,0.0,-999.0,89,-99.99,,,-99.99,,2013-02-13 09:02:00,
2013-02-13 04:11:00,25.0,22.0,29.83,WSW,240,0.0,-999.0,89,-99.99,,,-99.99,,2013-02-13 09:11:00,
2013-02-13 04:21:00,25.0,22.0,29.82,WSW,240,0.0,-999.0,89,-99.99,,,-99.99,,2013-02-13 09:21:00,
2013-02-13 04:32:00,25.0,22.0,29.81,WSW,240,0.0,-999.0,89,-99.99,,,-99.99,,2013-02-13 09:32:00,
2013-02-13 04:42:00,26.0,23.0,29.80,WSW,240,0.0,-999.0,89,-99.99,,,-99.99,,2013-02-13 09:42:00,
2013-02-13 04:52:00,26.0,23.0,29.80,WSW,240,0.0,-999.0,89,-99.99,,,-99.99,,2013-02-13 09:52:00,
2013-02-13 05:01:00,26.0,23.0,29.81,WSW,240,0.0,-999.0,89,-99.99,,,-99.99,,2013-02-13 10:01:00,
2013-02-13 05:11:00,26.0,23.0,29.81,WSW,240,0.0,-999.0,89,-99.99,,,-99.99,,2013-02-13 10:11:00,
2013-02-13 05:21:00,26.0,23.0,29.81,WSW,240,0.0,-999.0,89,-99.99,,,-99.99,,2013-02-13 10:21:00,
2013-02-13 05:32:00,26.0,23.0,29.81,WSW,240,0.0,-999.0,89,-99.99,,,-99.99,,2013-02-13 10:32:00,
2013-02-13 05:42:00,26.0,23.0,29.81,WSW,240,0.0,-999.0,89,-99.99,,,-99.99,,2013-02-13 10:42:00,
2013-02-13 05:51:00,26.0,23.0,29.81,WSW,240,0.0,-999.0,89,-99.99,,,-99.99,,2013-02-13 10:51:00,
2013-02-13 06:01:00,26.0,23.0,29.81,WSW,240,0.0,-999.0,89,-99.99,,,-99.99,,2013-02-13 11:01:00,
2013-02-13 06:11:00,26.0,23.0,29.81,WSW,240,0.0,-999.0,89,-99.99,,,-99.99,,2013-02-13 11:11:00,
2013-02-13 06:22:00,26.0,23.0,29.80,WSW,240,0.0,-999.0,89,-99.99,,,-99.99,,2013-02-13 11:22:00,
2013-02-13 06:32:00,26.0,23.0,29.80,WSW,240,0.0,-999.0,88,-99.99,,,-99.99,,2013-02-13 11:32:00,
2013-02-13 06:42:00,26.0,23.0,29.79,WSW,240,0.0,-999.0,88,-99.99,,,-99.99,,2013-02-13 11:42:00,
2013-02-13 06:52:00,26.0,23.0,29.79,WSW,240,0.0,-999.0,88,-99.99,,,-99.99,,2013-02-13 11:52:00,
2013-02-13 07:02:00,26.0,23.0,29.79,WSW,240,0.0,-999.0,88,-99.99,,,-99.99,,2013-02-13 12:02:00,
2013-02-13 07:11:00,26.0,23.0,29.79,WSW,240,0.0,-999.0,88,-99.99,,,-99.99,,2013-02-13 12:11:00,
2013-02-13 07:22:00,26.0,23.0,29.79,WSW,240,0.0,-999.0,88,-99.99,,,-99.99,,2013-02-13 12:22:00,
2013-02-13 07:32:00,26.0,23.0,29.79,WSW,240,0.0,-999.0,88,-99.99,,,-99.99,,2013-02-13 12:32:00,
2013-02-13 07:42:00,26.0,23.0,29.79,WSW,240,0.0,-999.0,88,-99.99,,,-99.99,,2013-02-13 12:42:00,
2013-02-13 07:52:00,26.0,23.0,29.78,WSW,240,0.0,-999.0,88,-99.99,,,-99.99,,2013-02-13 12:52:00,
2013-02-13 08:02:00,26.0,23.0,29.78,WSW,240,0.0,-999.0,88,-99.99,,,-99.99,,2013-02-13 13:02:00,
2013-02-13 08:11:00,26.0,23.0,29.78,WSW,240,0.0,-999.0,88,-99.99,,,-99.99,,2013-02-13 13:11:00,
2013-02-13 08:21:00,26.0,23.0,29.78,WSW,240,0.0,-999.0,88,-99.99,,,-99.99,,2013-02-13 13:21:00,
2013-02-13 08:32:00,26.0,23.0,29.78,WSW,240,0.0,-999.0,87,-99.99,,,-99.99,,2013-02-13 13:32:00,
2013-02-13 08:42:00,27.0,24.0,29.78,WSW,240,0.0,-999.0,87,-99.99,,,-99.99,,2013-02-13 13:42:00,
2013-02-13 08:51:00,27.0,24.0,29.78,WSW,240,0.0,-999.0,87,-99.99,,,-99.99,,2013-02-13 13:51:00,
2013-02-13 09:01:00,27.0,24.0,29.78,WSW,240,0.0,-999.0,87,-99.99,,,-99.99,,2013-02-13 14:01:00,
2013-02-13 09:11:00,27.0,24.0,29.78,WSW,240,0.0,-999.0,87,-99.99,,,-99.99,,2013-02-13 14:11:00,
2013-02-13 09:21:00,28.0,25.0,29.78,WSW,240,0.0,-999.0,87,-99.99,,,-99.99,,2013-02-13 14:21:00,
2013-02-13 09:32:00,28.0,24.0,29.77,WSW,240,0.0,-999.0,85,-99.99,,,-99.99,,2013-02-13 14:32:00,
2013-02-13 09:42:00,29.0,25.0,29.77,WSW,240,0.0,-999.0,83,-99.99,,,-99.99,,2013-02-13 14:42:00,
2013-02-13 09:52:00,29.0,25.0,29.77,WSW,240,0.0,-999.0,83,-99.99,,,-99.99,,2013-02-13 14:52:00,
2013-02-13 10:02:00,30.0,25.0,29.76,WSW,244,0.0,-999.0,80,-99.99,,,-99.99,,2013-02-13 15:02:00,
2013-02-13 10:11:00,31.0,25.0,29.75,North,350,0.0,-999.0,77,-99.99,,,-99.99,,2013-02-13 15:11:00,
2013-02-13 10:21:00,31.0,25.0,29.75,North,350,0.0,-999.0,77,-99.99,,,-99.99,,2013-02-13 15:21:00,
2013-02-13 10:32:00,31.0,23.0,29.75,North,350,1.0,-999.0,72,-99.99,,,-99.99,,2013-02-13 15:32:00,
2013-02-13 10:42:00,31.0,23.0,29.75,North,350,1.0,-999.0,72,-99.99,,,-99.99,,2013-02-13 15:42:00,
2013-02-13 10:52:00,31.0,23.0,29.73,NNW,342,1.0,-999.0,71,-99.99,,,-99.99,,2013-02-13 15:52:00,
2013-02-13 11:02:00,31.0,22.0,29.73,NNW,329,0.0,-999.0,69,-99.99,,,-99.99,,2013-02-13 16:02:00,
2013-02-13 11:12:00,32.0,22.0,29.73,SSW,196,0.0,-999.0,67,-99.99,,,-99.99,,2013-02-13 16:12:00,
2013-02-13 11:21:00,32.0,22.0,29.73,SSW,196,0.0,-999.0,67,-99.99,,,-99.99,,2013-02-13 16:21:00,
2013-02-13 11:32:00,32.0,22.0,29.75,SSW,193,1.0,-999.0,65,-99.99,,,-99.99,,2013-02-13 16:32:00,
2013-02-13 11:42:00,32.0,22.0,29.75,SSW,193,1.0,-999.0,65,-99.99,,,-99.99,,2013-02-13 16:42:00,
2013-02-13 11:51:00,32.0,22.0,29.75,WNW,289,0.0,-999.0,66,-99.99,,,-99.99,,2013-02-13 16:51:00,
2013-02-13 12:02:00,33.0,23.0,29.74,NW,325,0.0,-999.0,66,-99.99,,,-99.99,,2013-02-13 17:02:00,
2013-02-13 12:11:00,33.0,23.0,29.74,NW,325,0.0,-999.0,66,-99.99,,,-99.99,,2013-02-13 17:11:00,
2013-02-13 12:21:00,34.0,22.0,29.73,WNW,287,1.0,-999.0,61,-99.99,,,-99.99,,2013-02-13 17:21:00,
2013-02-13 12:32:00,34.0,23.0,29.72,NW,320,1.0,-999.0,63,-99.99,,,-99.99,,2013-02-13 17:32:00,
2013-02-13 12:42:00,34.0,23.0,29.72,NW,320,1.0,-999.0,63,-99.99,,,-99.99,,2013-02-13 17:42:00,
2013-02-13 12:52:00,36.0,24.0,29.71,NW,320,0.0,-999.0,61,-99.99,,,-99.99,,2013-02-13 17:52:00,
2013-02-13 13:02:00,36.0,23.0,29.70,NE,37,1.0,-999.0,58,-99.99,,,-99.99,,2013-02-13 18:02:00,
2013-02-13 13:11:00,36.0,23.0,29.70,NE,37,1.0,-999.0,58,-99.99,,,-99.99,,2013-02-13 18:11:00,
2013-02-13 13:23:00,36.0,22.0,29.69,South,182,2.0,-999.0,57,-99.99,,,-99.99,,2013-02-13 18:23:00,
2013-02-13 13:32:00,36.0,23.0,29.69,SW,234,2.0,-999.0,58,-99.99,,,-99.99,,2013-02-13 18:32:00,
2013-02-13 13:42:00,36.0,23.0,29.69,SW,234,2.0,-999.0,58,-99.99,,,-99.99,,2013-02-13 18:42:00,
2013-02-13 13:52:00,37.0,23.0,29.67,SW,229,1.0,-999.0,56,-99.99,,,-99.99,,2013-02-13 18:52:00,
2013-02-13 14:01:00,37.0,23.0,29.67,NNW,335,1.0,-999.0,57,-99.99,,,-99.99,,2013-02-13 19:01:00,
2013-02-13 14:11:00,38.0,23.0,29.66,SE,138,1.0,-999.0,55,-99.99,,,-99.99,,2013-02-13 19:11:00,
2013-02-13 14:21:00,38.0,23.0,29.66,SE,138,1.0,-999.0,55,-99.99,,,-99.99,,2013-02-13 19:21:00,
2013-02-13 14:32:00,39.0,24.0,29.65,WSW,256,1.0,-999.0,54,-99.99,,,-99.99,,2013-02-13 19:32:00,
2013-02-13 14:42:00,39.0,24.0,29.65,WSW,256,1.0,-999.0,54,-99.99,,,-99.99,,2013-02-13 19:42:00,
2013-02-13 14:51:00,38.0,23.0,29.65,NW,315,2.0,-999.0,55,-99.99,,,-99.99,,2013-02-13 19:51:00,
2013-02-13 15:02:00,37.0,23.0,29.65,NW,306,1.0,-999.0,57,-99.99,,,-99.99,,2013-02-13 20:02:00,
2013-02-13 15:11:00,37.0,24.0,29.64,NW,319,0.0,-999.0,58,-99.99,,,-99.99,,2013-02-13 20:11:00,
2013-02-13 15:21:00,37.0,24.0,29.64,NW,319,0.0,-999.0,58,-99.99,,,-99.99,,2013-02-13 20:21:00,
2013-02-13 15:32:00,37.0,23.0,29.64,NNW,328,1.0,-999.0,56,-99.99,,,-99.99,,2013-02-13 20:32:00,
2013-02-13 15:42:00,36.0,23.0,29.64,North,350,2.0,-999.0,60,-99.99,,,-99.99,,2013-02-13 20:42:00,
2013-02-13 15:52:00,36.0,23.0,29.64,North,350,2.0,-999.0,60,-99.99,,,-99.99,,2013-02-13 20:52:00,
2013-02-13 16:02:00,36.0,23.0,29.65,NNW,340,3.0,-999.0,60,-99.99,,,-99.99,,2013-02-13 21:02:00,
2013-02-13 16:11:00,36.0,23.0,29.65,NNW,340,3.0,-999.0,60,-99.99,,,-99.99,,2013-02-13 21:11:00,
2013-02-13 16:21:00,35.0,23.0,29.65,NW,325,2.0,-999.0,60,-99.99,,,-99.99,,2013-02-13 21:21:00,
2013-02-13 16:32:00,34.0,24.0,29.65,NNW,336,5.0,-999.0,66,-99.99,,,-99.99,,2013-02-13 21:32:00,
2013-02-13 16:42:00,34.0,24.0,29.65,NNW,336,5.0,-999.0,66,-99.99,,,-99.99,,2013-02-13 21:42:00,
2013-02-13 16:52:00,32.0,24.0,29.65,NNW,336,6.0,-999.0,71,-99.99,,,-99.99,,2013-02-13 21:52:00,
2013-02-13 17:02:00,32.0,24.0,29.66,NW,306,5.0,-999.0,73,-99.99,,,-99.99,,2013-02-13 22:02:00,
2013-02-13 17:11:00,32.0,24.0,29.66,NW,306,5.0,-999.0,73,-99.99,,,-99.99,,2013-02-13 22:11:00,
2013-02-13 17:21:00,31.0,24.0,29.66,North,357,4.0,-999.0,75,-99.99,,,-99.99,,2013-02-13 22:21:00,
2013-02-13 17:32:00,30.0,23.0,29.66,North,353,3.0,-999.0,76,-99.99,,,-99.99,,2013-02-13 22:32:00,
2013-02-13 17:42:00,30.0,23.0,29.66,North,353,3.0,-999.0,76,-99.99,,,-99.99,,2013-02-13 22:42:00,
2013-02-13 17:51:00,30.0,24.0,29.67,NNW,330,6.0,-999.0,77,-99.99,,,-99.99,,2013-02-13 22:51:00,
2013-02-13 18:01:00,29.0,23.0,29.67,NW,326,3.0,-999.0,78,-99.99,,,-99.99,,2013-02-13 23:01:00,
2013-02-13 18:11:00,29.0,23.0,29.67,NW,326,3.0,-999.0,78,-99.99,,,-99.99,,2013-02-13 23:11:00,
2013-02-13 18:22:00,29.0,23.0,29.68,NW,309,4.0,-999.0,79,-99.99,,,-99.99,,2013-02-13 23:22:00,
2013-02-13 18:32:00,28.0,23.0,29.68,NW,309,3.0,-999.0,80,-99.99,,,-99.99,,2013-02-13 23:32:00,
2013-02-13 18:42:00,28.0,23.0,29.68,NW,309,3.0,-999.0,80,-99.99,,,-99.99,,2013-02-13 23:42:00,
2013-02-13 18:52:00,28.0,23.0,29.68,NNW,330,2.0,-999.0,81,-99.99,,,-99.99,,2013-02-13 23:52:00,
2013-02-13 19:02:00,28.0,23.0,29.69,NNW,333,2.0,-999.0,81,-99.99,,,-99.99,,2013-02-14 00:02:00,
2013-02-13 19:11:00,28.0,23.0,29.69,NNW,333,2.0,-999.0,81,-99.99,,,-99.99,,2013-02-14 00:11:00,
2013-02-13 19:22:00,27.0,22.0,29.70,NW,308,3.0,-999.0,81,-99.99,,,-99.99,,2013-02-14 00:22:00,
2013-02-13 19:32:00,27.0,22.0,29.70,North,359,4.0,-999.0,82,-99.99,,,-99.99,,2013-02-14 00:32:00,
2013-02-13 19:42:00,27.0,22.0,29.70,North,359,4.0,-999.0,82,-99.99,,,-99.99,,2013-02-14 00:42:00,
2013-02-13 19:52:00,27.0,23.0,29.70,North,349,2.0,-999.0,83,-99.99,,,-99.99,,2013-02-14 00:52:00,
2013-02-13 20:01:00,27.0,23.0,29.71,NNW,329,1.0,-999.0,83,-99.99,,,-99.99,,2013-02-14 01:01:00,
2013-02-13 20:11:00,27.0,23.0,29.71,NNW,329,1.0,-999.0,83,-99.99,,,-99.99,,2013-02-14 01:11:00,
2013-02-13 20:21:00,26.0,22.0,29.71,North,349,2.0,-999.0,84,-99.99,,,-99.99,,2013-02-14 01:21:00,
2013-02-13 20:32:00,26.0,22.0,29.72,NNW,347,0.0,-999.0,84,-99.99,,,-99.99,,2013-02-14 01:32:00,
2013-02-13 20:41:00,26.0,22.0,29.72,NNW,347,0.0,-999.0,84,-99.99,,,-99.99,,2013-02-14 01:41:00,
2013-02-13 20:51:00,26.0,22.0,29.72,NNW,332,0.0,-999.0,84,-99.99,,,-99.99,,2013-02-14 01:51:00,
2013-02-13 21:02:00,26.0,22.0,29.73,NW,308,1.0,-999.0,84,-99.99,,,-99.99,,2013-02-14 02:02:00,
2013-02-13 21:11:00,25.0,21.0,29.73,NW,308,0.0,-999.0,84,-99.99,,,-99.99,,2013-02-14 02:11:00,
2013-02-13 21:21:00,25.0,21.0,29.73,NW,308,0.0,-999.0,84,-99.99,,,-99.99,,2013-02-14 02:21:00,
2013-02-13 21:32:00,25.0,21.0,29.73,NW,308,0.0,-999.0,85,-99.99,,,-99.99,,2013-02-14 02:32:00,
2013-02-13 21:42:00,25.0,21.0,29.73,NW,308,0.0,-999.0,85,-99.99,,,-99.99,,2013-02-14 02:42:00,
2013-02-13 21:51:00,25.0,21.0,29.73,NW,308,0.0,-999.0,85,-99.99,,,-99.99,,2013-02-14 02:51:00,
2013-02-13 22:02:00,24.0,20.0,29.75,NW,308,0.0,-999.0,85,-99.99,,,-99.99,,2013-02-14 03:02:00,
2013-02-13 22:12:00,24.0,20.0,29.75,NW,308,0.0,-999.0,85,-99.99,,,-99.99,,2013-02-14 03:12:00,
2013-02-13 22:22:00,24.0,20.0,29.75,NW,308,0.0,-999.0,86,-99.99,,,-99.99,,2013-02-14 03:22:00,
2013-02-13 22:32:00,24.0,20.0,29.75,NW,308,0.0,-999.0,86,-99.99,,,-99.99,,2013-02-14 03:32:00,
2013-02-13 22:42:00,24.0,20.0,29.75,NW,308,0.0,-999.0,86,-99.99,,,-99.99,,2013-02-14 03:42:00,
2013-02-13 22:51:00,24.0,21.0,29.76,NW,308,0.0,-999.0,87,-99.99,,,-99.99,,2013-02-14 03:51:00,
2013-02-13 23:01:00,24.0,21.0,29.76,NW,308,0.0,-999.0,87,-99.99,,,-99.99,,2013-02-14 04:01:00,
2013-02-13 23:12:00,23.0,20.0,29.76,NW,308,0.0,-999.0,87,-99.99,,,-99.99,,2013-02-14 04:12:00,
2013-02-13 23:21:00,23.0,20.0,29.76,NW,308,0.0,-999.0,87,-99.99,,,-99.99,,2013-02-14 04:21:00,
2013-02-13 23:32:00,24.0,21.0,29.76,NW,308,0.0,-999.0,88,-99.99,,,-99.99,,2013-02-14 04:32:00,
2013-02-13 23:42:00,24.0,21.0,29.76,NW,308,0.0,-999.0,88,-99.99,,,-99.99,,2013-02-14 04:42:00,
2013-02-13 23:51:00,24.0,21.0,29.76,West,264,0.0,-999.0,88,-99.99,,,-99.99,,2013-02-14 04:51:00,